Date_Time,Julian_Date,Latitude,Longitude,Instrument_Depth,U,V,Speed,Direction
(yyyy-mm-dd hh:mn:ss UTC),(JD),(+ deg. North),(+ deg. East),(m),(cm/s),(cm/s),(cm/s),(deg True)
1981-11-18 00:00:00 UTC,2444926.500000,29.7697,-93.3439,0037,-0.65,36.99,37.0000,359.0000
1981-11-18 00:30:00 UTC,2444926.520833,29.7697,-93.3439,0037,-1.06,60.99,61.0000,359.0000
1981-11-18 01:00:00 UTC,2444926.541667,29.7697,-93.3439,0037,-1.34,76.99,77.0000,359.0000
1981-11-18 01:30:00 UTC,2444926.562500,29.7697,-93.3439,0037,-1.45,82.99,83.0000,359.0000
1981-11-18 02:00:00 UTC,2444926.583333,29.7697,-93.3439,0037,-1.43,81.99,82.0000,359.0000
1981-11-18 02:30:00 UTC,2444926.604167,29.7697,-93.3439,0037,-2.83,80.95,81.0000,358.0000
1981-11-18 03:00:00 UTC,2444926.625000,29.7697,-93.3439,0037,-1.41,80.99,81.0000,359.0000
1981-11-18 03:30:00 UTC,2444926.645833,29.7697,-93.3439,0037,-1.41,80.99,81.0000,359.0000
1981-11-18 04:00:00 UTC,2444926.666667,29.7697,-93.3439,0037,-1.40,79.99,80.0000,359.0000
1981-11-18 04:30:00 UTC,2444926.687500,29.7697,-93.3439,0037,-1.33,75.99,76.0000,359.0000
1981-11-18 05:00:00 UTC,2444926.708333,29.7697,-93.3439,0037,-2.55,72.96,73.0000,358.0000
1981-11-18 05:30:00 UTC,2444926.729167,29.7697,-93.3439,0037,-2.55,72.96,73.0000,358.0000
1981-11-18 06:00:00 UTC,2444926.750000,29.7697,-93.3439,0037,-2.58,73.95,74.0000,358.0000
1981-11-18 06:30:00 UTC,2444926.770833,29.7697,-93.3439,0037,-2.44,69.96,70.0000,358.0000
1981-11-18 07:00:00 UTC,2444926.791667,29.7697,-93.3439,0037,-2.09,59.96,60.0000,358.0000
1981-11-18 07:30:00 UTC,2444926.812500,29.7697,-93.3439,0037,-1.68,47.97,48.0000,358.0000
1981-11-18 08:00:00 UTC,2444926.833333,29.7697,-93.3439,0037,-0.70,39.99,40.0000,359.0000
1981-11-18 08:30:00 UTC,2444926.854167,29.7697,-93.3439,0037,-0.61,34.99,35.0000,359.0000
1981-11-18 09:00:00 UTC,2444926.875000,29.7697,-93.3439,0037,1.47,27.96,28.0000,3.0000
1981-11-18 09:30:00 UTC,2444926.895833,29.7697,-93.3439,0037,2.92,20.80,21.0000,8.0000
1981-11-18 10:00:00 UTC,2444926.916667,29.7697,-93.3439,0037,3.86,13.46,14.0000,16.0000
1981-11-18 10:30:00 UTC,2444926.937500,29.7697,-93.3439,0037,1.55,5.80,6.0000,15.0000
1981-11-18 11:00:00 UTC,2444926.958333,29.7697,-93.3439,0037,-1.08,2.80,3.0000,339.0000
1981-11-18 11:30:00 UTC,2444926.979167,29.7697,-93.3439,0037,-1.44,1.39,2.0000,314.0000
1981-11-18 12:00:00 UTC,2444927.000000,29.7697,-93.3439,0037,0.02,-1.00,1.0000,179.0000
1981-11-18 12:30:00 UTC,2444927.020833,29.7697,-93.3439,0037,1.37,-3.76,4.0000,160.0000
1981-11-18 13:00:00 UTC,2444927.041667,29.7697,-93.3439,0037,1.10,-6.91,7.0000,171.0000
1981-11-18 13:30:00 UTC,2444927.062500,29.7697,-93.3439,0037,0.70,-9.98,10.0000,176.0000
1981-11-18 14:00:00 UTC,2444927.083333,29.7697,-93.3439,0037,1.46,-11.91,12.0000,173.0000
1981-11-18 14:30:00 UTC,2444927.104167,29.7697,-93.3439,0037,1.95,-15.88,16.0000,173.0000
1981-11-18 15:00:00 UTC,2444927.125000,29.7697,-93.3439,0037,1.83,-20.92,21.0000,175.0000
1981-11-18 15:30:00 UTC,2444927.145833,29.7697,-93.3439,0037,1.81,-25.94,26.0000,176.0000
1981-11-18 16:00:00 UTC,2444927.166667,29.7697,-93.3439,0037,2.53,-28.89,29.0000,175.0000
1981-11-18 16:30:00 UTC,2444927.187500,29.7697,-93.3439,0037,2.09,-29.93,30.0000,176.0000
1981-11-18 17:00:00 UTC,2444927.208333,29.7697,-93.3439,0037,2.37,-33.92,34.0000,176.0000
1981-11-18 17:30:00 UTC,2444927.229167,29.7697,-93.3439,0037,2.09,-39.95,40.0000,177.0000
1981-11-18 18:00:00 UTC,2444927.250000,29.7697,-93.3439,0037,2.41,-45.94,46.0000,177.0000
1981-11-18 18:30:00 UTC,2444927.270833,29.7697,-93.3439,0037,3.49,-49.88,50.0000,176.0000
1981-11-18 19:00:00 UTC,2444927.291667,29.7697,-93.3439,0037,4.62,-52.80,53.0000,175.0000
1981-11-18 19:30:00 UTC,2444927.312500,29.7697,-93.3439,0037,5.64,-53.70,54.0000,174.0000
1981-11-18 20:00:00 UTC,2444927.333333,29.7697,-93.3439,0037,5.75,-54.70,55.0000,174.0000
1981-11-18 20:30:00 UTC,2444927.354167,29.7697,-93.3439,0037,6.06,-57.68,58.0000,174.0000
1981-11-18 21:00:00 UTC,2444927.375000,29.7697,-93.3439,0037,7.92,-64.52,65.0000,173.0000
1981-11-18 21:30:00 UTC,2444927.395833,29.7697,-93.3439,0037,8.65,-70.47,71.0000,173.0000
1981-11-18 22:00:00 UTC,2444927.416667,29.7697,-93.3439,0037,10.30,-73.28,74.0000,172.0000
1981-11-18 22:30:00 UTC,2444927.437500,29.7697,-93.3439,0037,8.77,-71.46,72.0000,173.0000
1981-11-18 23:00:00 UTC,2444927.458333,29.7697,-93.3439,0037,8.77,-62.39,63.0000,172.0000
1981-11-18 23:30:00 UTC,2444927.479167,29.7697,-93.3439,0037,7.51,-47.41,48.0000,171.0000
1981-11-19 00:00:00 UTC,2444927.500000,29.7697,-93.3439,0037,4.69,-26.59,27.0000,170.0000
1981-11-19 00:30:00 UTC,2444927.520833,29.7697,-93.3439,0037,1.51,-1.31,2.0000,131.0000
1981-11-19 01:00:00 UTC,2444927.541667,29.7697,-93.3439,0037,-1.01,28.98,29.0000,358.0000
1981-11-19 01:30:00 UTC,2444927.562500,29.7697,-93.3439,0037,-2.88,54.92,55.0000,357.0000
1981-11-19 02:00:00 UTC,2444927.583333,29.7697,-93.3439,0037,-1.24,70.99,71.0000,359.0000
1981-11-19 02:30:00 UTC,2444927.604167,29.7697,-93.3439,0037,0.00,0.00,0.0000,0.0000
1981-11-19 03:00:00 UTC,2444927.625000,29.7697,-93.3439,0037,-1.54,87.99,88.0000,359.0000
1981-11-19 03:30:00 UTC,2444927.645833,29.7697,-93.3439,0037,-1.55,88.99,89.0000,359.0000
1981-11-19 04:00:00 UTC,2444927.666667,29.7697,-93.3439,0037,-1.50,85.99,86.0000,359.0000
1981-11-19 04:30:00 UTC,2444927.687500,29.7697,-93.3439,0037,-1.47,83.99,84.0000,359.0000
1981-11-19 05:00:00 UTC,2444927.708333,29.7697,-93.3439,0037,-4.29,81.89,82.0000,357.0000
1981-11-19 05:30:00 UTC,2444927.729167,29.7697,-93.3439,0037,-5.58,79.81,80.0000,356.0000
1981-11-19 06:00:00 UTC,2444927.750000,29.7697,-93.3439,0037,-5.44,77.81,78.0000,356.0000
1981-11-19 06:30:00 UTC,2444927.770833,29.7697,-93.3439,0037,-5.23,74.82,75.0000,356.0000
1981-11-19 07:00:00 UTC,2444927.791667,29.7697,-93.3439,0037,-5.02,71.82,72.0000,356.0000
1981-11-19 07:30:00 UTC,2444927.812500,29.7697,-93.3439,0037,-4.53,64.84,65.0000,356.0000
1981-11-19 08:00:00 UTC,2444927.833333,29.7697,-93.3439,0037,-2.93,55.92,56.0000,357.0000
1981-11-19 08:30:00 UTC,2444927.854167,29.7697,-93.3439,0037,-0.77,43.99,44.0000,359.0000
1981-11-19 09:00:00 UTC,2444927.875000,29.7697,-93.3439,0037,-1.12,31.98,32.0000,358.0000
1981-11-19 09:30:00 UTC,2444927.895833,29.7697,-93.3439,0037,-0.70,19.99,20.0000,358.0000
1981-11-19 10:00:00 UTC,2444927.916667,29.7697,-93.3439,0037,-0.58,10.98,11.0000,357.0000
1981-11-19 10:30:00 UTC,2444927.937500,29.7697,-93.3439,0037,-0.83,3.91,4.0000,348.0000
1981-11-19 11:00:00 UTC,2444927.958333,29.7697,-93.3439,0037,-0.28,-3.99,4.0000,184.0000
1981-11-19 11:30:00 UTC,2444927.979167,29.7697,-93.3439,0037,0.79,-14.98,15.0000,177.0000
1981-11-19 12:00:00 UTC,2444928.000000,29.7697,-93.3439,0037,1.74,-24.94,25.0000,176.0000
1981-11-19 12:30:00 UTC,2444928.020833,29.7697,-93.3439,0037,2.02,-28.93,29.0000,176.0000
1981-11-19 13:00:00 UTC,2444928.041667,29.7697,-93.3439,0037,2.53,-28.89,29.0000,175.0000
1981-11-19 13:30:00 UTC,2444928.062500,29.7697,-93.3439,0037,2.27,-25.90,26.0000,175.0000
1981-11-19 14:00:00 UTC,2444928.083333,29.7697,-93.3439,0037,1.67,-23.94,24.0000,176.0000
1981-11-19 14:30:00 UTC,2444928.104167,29.7697,-93.3439,0037,1.20,-22.97,23.0000,177.0000
1981-11-19 15:00:00 UTC,2444928.125000,29.7697,-93.3439,0037,1.40,-19.95,20.0000,176.0000
1981-11-19 15:30:00 UTC,2444928.145833,29.7697,-93.3439,0037,1.26,-17.96,18.0000,176.0000
1981-11-19 16:00:00 UTC,2444928.166667,29.7697,-93.3439,0037,1.40,-19.95,20.0000,176.0000
1981-11-19 16:30:00 UTC,2444928.187500,29.7697,-93.3439,0037,1.60,-22.94,23.0000,176.0000
1981-11-19 17:00:00 UTC,2444928.208333,29.7697,-93.3439,0037,1.41,-26.96,27.0000,177.0000
1981-11-19 17:30:00 UTC,2444928.229167,29.7697,-93.3439,0037,1.62,-30.96,31.0000,177.0000
1981-11-19 18:00:00 UTC,2444928.250000,29.7697,-93.3439,0037,2.23,-31.92,32.0000,176.0000
1981-11-19 18:30:00 UTC,2444928.270833,29.7697,-93.3439,0037,1.67,-31.96,32.0000,177.0000
1981-11-19 19:00:00 UTC,2444928.291667,29.7697,-93.3439,0037,1.83,-34.95,35.0000,177.0000
1981-11-19 19:30:00 UTC,2444928.312500,29.7697,-93.3439,0037,2.36,-44.94,45.0000,177.0000
1981-11-19 20:00:00 UTC,2444928.333333,29.7697,-93.3439,0037,2.93,-55.92,56.0000,177.0000
1981-11-19 20:30:00 UTC,2444928.354167,29.7697,-93.3439,0037,3.45,-65.91,66.0000,177.0000
1981-11-19 21:00:00 UTC,2444928.375000,29.7697,-93.3439,0037,5.16,-73.82,74.0000,176.0000
1981-11-19 21:30:00 UTC,2444928.395833,29.7697,-93.3439,0037,7.06,-80.69,81.0000,175.0000
1981-11-19 22:00:00 UTC,2444928.416667,29.7697,-93.3439,0037,7.32,-83.68,84.0000,175.0000
1981-11-19 22:30:00 UTC,2444928.437500,29.7697,-93.3439,0037,7.41,-84.68,85.0000,175.0000
1981-11-19 23:00:00 UTC,2444928.458333,29.7697,-93.3439,0037,10.24,-83.37,84.0000,173.0000
1981-11-19 23:30:00 UTC,2444928.479167,29.7697,-93.3439,0037,11.41,-81.20,82.0000,172.0000
1981-11-20 00:00:00 UTC,2444928.500000,29.7697,-93.3439,0037,9.75,-79.40,80.0000,173.0000
1981-11-20 00:30:00 UTC,2444928.520833,29.7697,-93.3439,0037,8.26,-78.57,79.0000,174.0000
1981-11-20 01:00:00 UTC,2444928.541667,29.7697,-93.3439,0037,8.26,-78.57,79.0000,174.0000
1981-11-20 01:30:00 UTC,2444928.562500,29.7697,-93.3439,0037,8.05,-76.58,77.0000,174.0000
1981-11-20 02:00:00 UTC,2444928.583333,29.7697,-93.3439,0037,7.42,-70.61,71.0000,174.0000
1981-11-20 02:30:00 UTC,2444928.604167,29.7697,-93.3439,0037,8.17,-66.50,67.0000,173.0000
1981-11-20 03:00:00 UTC,2444928.625000,29.7697,-93.3439,0037,7.68,-62.53,63.0000,173.0000
1981-11-20 03:30:00 UTC,2444928.645833,29.7697,-93.3439,0037,6.95,-56.58,57.0000,173.0000
1981-11-20 04:00:00 UTC,2444928.666667,29.7697,-93.3439,0037,6.09,-49.63,50.0000,173.0000
1981-11-20 04:30:00 UTC,2444928.687500,29.7697,-93.3439,0037,5.98,-42.58,43.0000,172.0000
1981-11-20 05:00:00 UTC,2444928.708333,29.7697,-93.3439,0037,6.10,-38.52,39.0000,171.0000
1981-11-20 05:30:00 UTC,2444928.729167,29.7697,-93.3439,0037,5.71,-40.60,41.0000,172.0000
1981-11-20 06:00:00 UTC,2444928.750000,29.7697,-93.3439,0037,5.85,-47.64,48.0000,173.0000
1981-11-20 06:30:00 UTC,2444928.770833,29.7697,-93.3439,0037,7.07,-57.57,58.0000,173.0000
1981-11-20 07:00:00 UTC,2444928.791667,29.7697,-93.3439,0037,8.53,-69.48,70.0000,173.0000
1981-11-20 07:30:00 UTC,2444928.812500,29.7697,-93.3439,0037,8.47,-80.56,81.0000,174.0000
1981-11-20 08:00:00 UTC,2444928.833333,29.7697,-93.3439,0037,7.41,-84.68,85.0000,175.0000
1981-11-20 08:30:00 UTC,2444928.854167,29.7697,-93.3439,0037,7.50,-85.67,86.0000,175.0000
1981-11-20 09:00:00 UTC,2444928.875000,29.7697,-93.3439,0037,8.89,-84.53,85.0000,174.0000
1981-11-20 09:30:00 UTC,2444928.895833,29.7697,-93.3439,0037,8.78,-83.54,84.0000,174.0000
1981-11-20 10:00:00 UTC,2444928.916667,29.7697,-93.3439,0037,9.99,-81.39,82.0000,173.0000
1981-11-20 10:30:00 UTC,2444928.937500,29.7697,-93.3439,0037,9.51,-77.42,78.0000,173.0000
1981-11-20 11:00:00 UTC,2444928.958333,29.7697,-93.3439,0037,8.90,-72.46,73.0000,173.0000
1981-11-20 11:30:00 UTC,2444928.979167,29.7697,-93.3439,0037,8.29,-67.49,68.0000,173.0000
1981-11-20 12:00:00 UTC,2444929.000000,29.7697,-93.3439,0037,7.92,-64.52,65.0000,173.0000
1981-11-20 12:30:00 UTC,2444929.020833,29.7697,-93.3439,0037,8.63,-61.40,62.0000,172.0000
1981-11-20 13:00:00 UTC,2444929.041667,29.7697,-93.3439,0037,9.23,-58.27,59.0000,171.0000
1981-11-20 13:30:00 UTC,2444929.062500,29.7697,-93.3439,0037,7.93,-56.45,57.0000,172.0000
1981-11-20 14:00:00 UTC,2444929.083333,29.7697,-93.3439,0037,7.52,-53.47,54.0000,172.0000
1981-11-20 14:30:00 UTC,2444929.104167,29.7697,-93.3439,0037,6.68,-47.53,48.0000,172.0000
1981-11-20 15:00:00 UTC,2444929.125000,29.7697,-93.3439,0037,5.57,-39.61,40.0000,172.0000
1981-11-20 15:30:00 UTC,2444929.145833,29.7697,-93.3439,0037,4.04,-28.72,29.0000,172.0000
1981-11-20 16:00:00 UTC,2444929.166667,29.7697,-93.3439,0037,2.37,-16.83,17.0000,172.0000
1981-11-20 16:30:00 UTC,2444929.187500,29.7697,-93.3439,0037,0.84,-5.94,6.0000,172.0000
1981-11-20 17:00:00 UTC,2444929.208333,29.7697,-93.3439,0037,0.09,5.00,5.0000,1.0000
1981-11-20 17:30:00 UTC,2444929.229167,29.7697,-93.3439,0037,-1.05,19.97,20.0000,357.0000
1981-11-20 18:00:00 UTC,2444929.250000,29.7697,-93.3439,0037,-1.83,34.95,35.0000,357.0000
1981-11-20 18:30:00 UTC,2444929.270833,29.7697,-93.3439,0037,-2.36,44.94,45.0000,357.0000
1981-11-20 19:00:00 UTC,2444929.291667,29.7697,-93.3439,0037,-2.56,48.93,49.0000,357.0000
1981-11-20 19:30:00 UTC,2444929.312500,29.7697,-93.3439,0037,-4.53,51.80,52.0000,355.0000
1981-11-20 20:00:00 UTC,2444929.333333,29.7697,-93.3439,0037,-3.63,51.87,52.0000,356.0000
1981-11-20 20:30:00 UTC,2444929.354167,29.7697,-93.3439,0037,-2.46,46.94,47.0000,357.0000
1981-11-20 21:00:00 UTC,2444929.375000,29.7697,-93.3439,0037,-2.86,40.90,41.0000,356.0000
1981-11-20 21:30:00 UTC,2444929.395833,29.7697,-93.3439,0037,-2.37,33.92,34.0000,356.0000
1981-11-20 22:00:00 UTC,2444929.416667,29.7697,-93.3439,0037,-1.53,21.95,22.0000,356.0000
1981-11-20 22:30:00 UTC,2444929.437500,29.7697,-93.3439,0037,-0.70,7.97,8.0000,355.0000
1981-11-20 23:00:00 UTC,2444929.458333,29.7697,-93.3439,0037,0.21,-3.99,4.0000,177.0000
1981-11-20 23:30:00 UTC,2444929.479167,29.7697,-93.3439,0037,0.91,-12.97,13.0000,176.0000
1981-11-21 00:00:00 UTC,2444929.500000,29.7697,-93.3439,0037,1.57,-14.92,15.0000,174.0000
1981-11-21 00:30:00 UTC,2444929.520833,29.7697,-93.3439,0037,1.72,-10.86,11.0000,171.0000
1981-11-21 01:00:00 UTC,2444929.541667,29.7697,-93.3439,0037,1.25,-5.87,6.0000,168.0000
1981-11-21 01:30:00 UTC,2444929.562500,29.7697,-93.3439,0037,0.58,1.91,2.0000,17.0000
1981-11-21 02:00:00 UTC,2444929.583333,29.7697,-93.3439,0037,-0.26,15.00,15.0000,359.0000
1981-11-21 02:30:00 UTC,2444929.604167,29.7697,-93.3439,0037,-0.56,32.00,32.0000,359.0000
1981-11-21 03:00:00 UTC,2444929.625000,29.7697,-93.3439,0037,-1.61,45.97,46.0000,358.0000
1981-11-21 03:30:00 UTC,2444929.645833,29.7697,-93.3439,0037,-2.88,54.92,55.0000,357.0000
1981-11-21 04:00:00 UTC,2444929.666667,29.7697,-93.3439,0037,-4.33,61.85,62.0000,356.0000
1981-11-21 04:30:00 UTC,2444929.687500,29.7697,-93.3439,0037,-5.02,71.82,72.0000,356.0000
1981-11-21 05:00:00 UTC,2444929.708333,29.7697,-93.3439,0037,-4.29,81.89,82.0000,357.0000
1981-11-21 05:30:00 UTC,2444929.729167,29.7697,-93.3439,0037,-1.43,81.99,82.0000,359.0000
1981-11-21 06:00:00 UTC,2444929.750000,29.7697,-93.3439,0037,0.00,0.00,0.0000,0.0000
1981-11-21 06:30:00 UTC,2444929.770833,29.7697,-93.3439,0037,-1.27,72.99,73.0000,359.0000
1981-11-21 07:00:00 UTC,2444929.791667,29.7697,-93.3439,0037,-1.22,69.99,70.0000,359.0000
1981-11-21 07:30:00 UTC,2444929.812500,29.7697,-93.3439,0037,-1.17,66.99,67.0000,359.0000
1981-11-21 08:00:00 UTC,2444929.833333,29.7697,-93.3439,0037,-1.10,62.99,63.0000,359.0000
1981-11-21 08:30:00 UTC,2444929.854167,29.7697,-93.3439,0037,0.99,56.99,57.0000,1.0000
1981-11-21 09:00:00 UTC,2444929.875000,29.7697,-93.3439,0037,0.00,0.00,0.0000,0.0000
1981-11-21 09:30:00 UTC,2444929.895833,29.7697,-93.3439,0037,0.63,35.99,36.0000,1.0000
1981-11-21 10:00:00 UTC,2444929.916667,29.7697,-93.3439,0037,1.99,18.90,19.0000,6.0000
1981-11-21 10:30:00 UTC,2444929.937500,29.7697,-93.3439,0037,1.85,-2.36,3.0000,142.0000
1981-11-21 11:00:00 UTC,2444929.958333,29.7697,-93.3439,0037,1.53,-21.95,22.0000,176.0000
1981-11-21 11:30:00 UTC,2444929.979167,29.7697,-93.3439,0037,1.78,-33.95,34.0000,177.0000
1981-11-21 12:00:00 UTC,2444930.000000,29.7697,-93.3439,0037,2.09,-39.95,40.0000,177.0000
1981-11-21 12:30:00 UTC,2444930.020833,29.7697,-93.3439,0037,2.86,-40.90,41.0000,176.0000
1981-11-21 13:00:00 UTC,2444930.041667,29.7697,-93.3439,0037,2.86,-40.90,41.0000,176.0000
1981-11-21 13:30:00 UTC,2444930.062500,29.7697,-93.3439,0037,3.49,-39.85,40.0000,175.0000
1981-11-21 14:00:00 UTC,2444930.083333,29.7697,-93.3439,0037,3.14,-35.86,36.0000,175.0000
1981-11-21 14:30:00 UTC,2444930.104167,29.7697,-93.3439,0037,3.24,-30.83,31.0000,174.0000
1981-11-21 15:00:00 UTC,2444930.125000,29.7697,-93.3439,0037,5.56,-22.32,23.0000,166.0000
1981-11-21 15:30:00 UTC,2444930.145833,29.7697,-93.3439,0037,6.70,-11.14,13.0000,149.0000
1981-11-21 16:00:00 UTC,2444930.166667,29.7697,-93.3439,0037,3.60,3.47,5.0000,46.0000
1981-11-21 16:30:00 UTC,2444930.187500,29.7697,-93.3439,0037,0.00,0.00,0.0000,0.0000
1981-11-21 17:00:00 UTC,2444930.208333,29.7697,-93.3439,0037,-0.86,48.99,49.0000,359.0000
1981-11-21 17:30:00 UTC,2444930.229167,29.7697,-93.3439,0037,-1.06,60.99,61.0000,359.0000
1981-11-21 18:00:00 UTC,2444930.250000,29.7697,-93.3439,0037,-1.08,61.99,62.0000,359.0000
1981-11-21 18:30:00 UTC,2444930.270833,29.7697,-93.3439,0037,-1.08,61.99,62.0000,359.0000
1981-11-21 19:00:00 UTC,2444930.291667,29.7697,-93.3439,0037,-2.16,61.96,62.0000,358.0000
1981-11-21 19:30:00 UTC,2444930.312500,29.7697,-93.3439,0037,-3.09,58.92,59.0000,357.0000
1981-11-21 20:00:00 UTC,2444930.333333,29.7697,-93.3439,0037,-1.88,53.97,54.0000,358.0000
1981-11-21 20:30:00 UTC,2444930.354167,29.7697,-93.3439,0037,-0.80,45.99,46.0000,359.0000
1981-11-21 21:00:00 UTC,2444930.375000,29.7697,-93.3439,0037,-0.59,33.99,34.0000,359.0000
1981-11-21 21:30:00 UTC,2444930.395833,29.7697,-93.3439,0037,-0.38,22.00,22.0000,359.0000
1981-11-21 22:00:00 UTC,2444930.416667,29.7697,-93.3439,0037,0.00,0.00,0.0000,0.0000
1981-11-21 22:30:00 UTC,2444930.437500,29.7697,-93.3439,0037,0.49,-13.99,14.0000,178.0000
1981-11-21 23:00:00 UTC,2444930.458333,29.7697,-93.3439,0037,1.67,-31.96,32.0000,177.0000
1981-11-21 23:30:00 UTC,2444930.479167,29.7697,-93.3439,0037,2.79,-39.90,40.0000,176.0000
1981-11-22 00:00:00 UTC,2444930.500000,29.7697,-93.3439,0037,3.07,-43.89,44.0000,176.0000
1981-11-22 00:30:00 UTC,2444930.520833,29.7697,-93.3439,0037,2.25,-42.94,43.0000,177.0000
1981-11-22 01:00:00 UTC,2444930.541667,29.7697,-93.3439,0037,2.79,-39.90,40.0000,176.0000
1981-11-22 01:30:00 UTC,2444930.562500,29.7697,-93.3439,0037,2.51,-35.91,36.0000,176.0000
1981-11-22 02:00:00 UTC,2444930.583333,29.7697,-93.3439,0037,2.72,-25.86,26.0000,174.0000
1981-11-22 02:30:00 UTC,2444930.604167,29.7697,-93.3439,0037,1.74,-9.85,10.0000,170.0000
1981-11-22 03:00:00 UTC,2444930.625000,29.7697,-93.3439,0037,0.73,5.96,6.0000,7.0000
1981-11-22 03:30:00 UTC,2444930.645833,29.7697,-93.3439,0037,0.94,17.98,18.0000,3.0000
1981-11-22 04:00:00 UTC,2444930.666667,29.7697,-93.3439,0037,0.58,32.99,33.0000,1.0000
1981-11-22 04:30:00 UTC,2444930.687500,29.7697,-93.3439,0037,-1.78,50.97,51.0000,358.0000
1981-11-22 05:00:00 UTC,2444930.708333,29.7697,-93.3439,0037,-2.16,61.96,62.0000,358.0000
1981-11-22 05:30:00 UTC,2444930.729167,29.7697,-93.3439,0037,-1.06,60.99,61.0000,359.0000
1981-11-22 06:00:00 UTC,2444930.750000,29.7697,-93.3439,0037,-0.98,55.99,56.0000,359.0000
1981-11-22 06:30:00 UTC,2444930.770833,29.7697,-93.3439,0037,-0.91,51.99,52.0000,359.0000
1981-11-22 07:00:00 UTC,2444930.791667,29.7697,-93.3439,0037,-0.80,45.99,46.0000,359.0000
1981-11-22 07:30:00 UTC,2444930.812500,29.7697,-93.3439,0037,0.00,0.00,0.0000,0.0000
1981-11-22 08:00:00 UTC,2444930.833333,29.7697,-93.3439,0037,0.51,29.00,29.0000,1.0000
1981-11-22 08:30:00 UTC,2444930.854167,29.7697,-93.3439,0037,1.05,11.95,12.0000,5.0000
1981-11-22 09:00:00 UTC,2444930.875000,29.7697,-93.3439,0037,1.39,-9.90,10.0000,172.0000
1981-11-22 09:30:00 UTC,2444930.895833,29.7697,-93.3439,0037,1.73,-32.95,33.0000,177.0000
1981-11-22 10:00:00 UTC,2444930.916667,29.7697,-93.3439,0037,2.56,-48.93,49.0000,177.0000
1981-11-22 10:30:00 UTC,2444930.937500,29.7697,-93.3439,0037,2.93,-55.92,56.0000,177.0000
1981-11-22 11:00:00 UTC,2444930.958333,29.7697,-93.3439,0037,3.14,-59.92,60.0000,177.0000
1981-11-22 11:30:00 UTC,2444930.979167,29.7697,-93.3439,0037,4.32,-61.85,62.0000,176.0000
1981-11-22 12:00:00 UTC,2444931.000000,29.7697,-93.3439,0037,4.32,-61.85,62.0000,176.0000
1981-11-22 12:30:00 UTC,2444931.020833,29.7697,-93.3439,0037,4.05,-57.86,58.0000,176.0000
1981-11-22 13:00:00 UTC,2444931.041667,29.7697,-93.3439,0037,4.62,-52.80,53.0000,175.0000
1981-11-22 13:30:00 UTC,2444931.062500,29.7697,-93.3439,0037,5.61,-45.66,46.0000,173.0000
1981-11-22 14:00:00 UTC,2444931.083333,29.7697,-93.3439,0037,5.57,-39.61,40.0000,172.0000
1981-11-22 14:30:00 UTC,2444931.104167,29.7697,-93.3439,0037,8.80,-32.84,34.0000,165.0000
1981-11-22 15:00:00 UTC,2444931.125000,29.7697,-93.3439,0037,10.14,-21.75,24.0000,155.0000
1981-11-22 15:30:00 UTC,2444931.145833,29.7697,-93.3439,0037,5.75,-5.56,8.0000,134.0000
1981-11-22 16:00:00 UTC,2444931.166667,29.7697,-93.3439,0037,1.67,15.91,16.0000,6.0000
1981-11-22 16:30:00 UTC,2444931.187500,29.7697,-93.3439,0037,-0.66,37.99,38.0000,359.0000
1981-11-22 17:00:00 UTC,2444931.208333,29.7697,-93.3439,0037,-0.93,52.99,53.0000,359.0000
1981-11-22 17:30:00 UTC,2444931.229167,29.7697,-93.3439,0037,-2.09,59.96,60.0000,358.0000
1981-11-22 18:00:00 UTC,2444931.250000,29.7697,-93.3439,0037,-3.40,64.91,65.0000,357.0000
1981-11-22 18:30:00 UTC,2444931.270833,29.7697,-93.3439,0037,-5.02,71.82,72.0000,356.0000
1981-11-22 19:00:00 UTC,2444931.291667,29.7697,-93.3439,0037,-5.37,76.81,77.0000,356.0000
1981-11-22 19:30:00 UTC,2444931.312500,29.7697,-93.3439,0037,-4.19,79.89,80.0000,357.0000
1981-11-22 20:00:00 UTC,2444931.333333,29.7697,-93.3439,0037,-2.79,79.95,80.0000,358.0000
1981-11-22 20:30:00 UTC,2444931.354167,29.7697,-93.3439,0037,-1.34,76.99,77.0000,359.0000
1981-11-22 21:00:00 UTC,2444931.375000,29.7697,-93.3439,0037,-1.22,69.99,70.0000,359.0000
1981-11-22 21:30:00 UTC,2444931.395833,29.7697,-93.3439,0037,-1.10,62.99,63.0000,359.0000
1981-11-22 22:00:00 UTC,2444931.416667,29.7697,-93.3439,0037,-0.94,53.99,54.0000,359.0000
1981-11-22 22:30:00 UTC,2444931.437500,29.7697,-93.3439,0037,0.79,44.99,45.0000,1.0000
1981-11-22 23:00:00 UTC,2444931.458333,29.7697,-93.3439,0037,1.73,32.95,33.0000,3.0000
1981-11-22 23:30:00 UTC,2444931.479167,29.7697,-93.3439,0037,0.77,21.99,22.0000,2.0000
1981-11-23 00:00:00 UTC,2444931.500000,29.7697,-93.3439,0037,-1.48,16.94,17.0000,355.0000
1981-11-23 00:30:00 UTC,2444931.520833,29.7697,-93.3439,0037,-2.70,12.72,13.0000,348.0000
1981-11-23 01:00:00 UTC,2444931.541667,29.7697,-93.3439,0037,-1.75,5.74,6.0000,343.0000
1981-11-23 01:30:00 UTC,2444931.562500,29.7697,-93.3439,0037,-0.67,0.74,1.0000,318.0000
1981-11-23 02:00:00 UTC,2444931.583333,29.7697,-93.3439,0037,-2.91,5.25,6.0000,331.0000
1981-11-23 02:30:00 UTC,2444931.604167,29.7697,-93.3439,0037,-2.97,18.77,19.0000,351.0000
1981-11-23 03:00:00 UTC,2444931.625000,29.7697,-93.3439,0037,0.98,27.98,28.0000,2.0000
1981-11-23 03:30:00 UTC,2444931.645833,29.7697,-93.3439,0037,1.88,26.93,27.0000,4.0000
1981-11-23 04:00:00 UTC,2444931.666667,29.7697,-93.3439,0037,0.00,0.00,0.0000,0.0000
1981-11-23 04:30:00 UTC,2444931.687500,29.7697,-93.3439,0037,-0.58,32.99,33.0000,359.0000
1981-11-23 05:00:00 UTC,2444931.708333,29.7697,-93.3439,0037,0.00,0.00,0.0000,0.0000
1981-11-23 05:30:00 UTC,2444931.729167,29.7697,-93.3439,0037,-0.72,40.99,41.0000,359.0000
1981-11-23 06:00:00 UTC,2444931.750000,29.7697,-93.3439,0037,-0.72,40.99,41.0000,359.0000
1981-11-23 06:30:00 UTC,2444931.770833,29.7697,-93.3439,0037,-0.72,40.99,41.0000,359.0000
1981-11-23 07:00:00 UTC,2444931.791667,29.7697,-93.3439,0037,-0.72,40.99,41.0000,359.0000
1981-11-23 07:30:00 UTC,2444931.812500,29.7697,-93.3439,0037,-0.65,36.99,37.0000,359.0000
1981-11-23 08:00:00 UTC,2444931.833333,29.7697,-93.3439,0037,0.00,0.00,0.0000,0.0000
1981-11-23 08:30:00 UTC,2444931.854167,29.7697,-93.3439,0037,0.35,20.00,20.0000,1.0000
1981-11-23 09:00:00 UTC,2444931.875000,29.7697,-93.3439,0037,0.31,8.99,9.0000,2.0000
1981-11-23 09:30:00 UTC,2444931.895833,29.7697,-93.3439,0037,1.11,-7.92,8.0000,172.0000
1981-11-23 10:00:00 UTC,2444931.916667,29.7697,-93.3439,0037,2.02,-28.93,29.0000,176.0000
1981-11-23 10:30:00 UTC,2444931.937500,29.7697,-93.3439,0037,3.21,-45.89,46.0000,176.0000
1981-11-23 11:00:00 UTC,2444931.958333,29.7697,-93.3439,0037,3.84,-54.87,55.0000,176.0000
1981-11-23 11:30:00 UTC,2444931.979167,29.7697,-93.3439,0037,4.26,-60.85,61.0000,176.0000
1981-11-23 12:00:00 UTC,2444932.000000,29.7697,-93.3439,0037,4.67,-66.84,67.0000,176.0000
1981-11-23 12:30:00 UTC,2444932.020833,29.7697,-93.3439,0037,4.95,-70.83,71.0000,176.0000